User: anonymous   Login
Location: Unspecified
(0.0000°N, 0.0000°E)
Time: 03:24:42
(UTC+00:00)
Language:

STARLINK-35734 - Orbit

View from above orbital plane
View from above orbital plane
View from above satellite
View from above satellite

Ground track
Ground track

The orbit is defined by the following mean orbital elements,

1 66225U          26145.53928828 +.00000000 +00000-0 +57972-3 0 00000
2 66225  53.1577 233.0855 0000498 308.5399  51.5557 15.30193561    07
Epoch (UTC): 25 May 2026 12:56:34
Eccentricity: 0.0000498
inclination: 53.1577°
perigee height: 475 km
apogee height: 476 km
right ascension of ascending node: 233.0855°
argument of perigee: 308.5399°
revolutions per day: 15.30193561
mean anomaly at epoch: 51.5557°

The dashed part of the orbit path shows where the satellite is in the earth's shadow,  

DLR